Volver al catálogo

COSMOS 2251 DEB

ActivoLEO
NORAD 33896·DEBRIS·🇷🇺 Russia

Lanzado Jun 16, 1993 desde Plesetsk Cosmodrome

Loading…

Próximos Pases (próximas 24 horas)

TLE

ActualizadoSource: Space-Track

Época: Sep 13, 2026, 18:07 UTC

1 33896U 93036CZ  26256.75493940  .00001138  00000-0  50954-3 0  9991
2 33896  73.7685  17.0560 0123880 146.9518 331.5612 14.19723496906420

Sigue COSMOS 2251 DEB en tiempo real con AllMySat

Download on the App Store